sat.trackr.live / text

‹ back to catalog

KUIPER-00197

NORAD 67769 · 2026-030F

PAYLOAD ACTIVE UNKNOWN

§ Identity

Operator
Country
US
Launch date
2026-02-12
Launch site
FRGUI
Launch vehicle
Mass (kg)
RCS (m²)

External: N2YO · Heavens-Above · Gunter

§ Orbital elements

Epoch: 2026-05-25T04:00:03.998880Z

Period
95.58 min
Inclination
51.9040°
Eccentricity
0.0003162
Mean motion
15.06534576 rev/d
Perigee alt
544.6 km
Apogee alt
549.0 km
Semi-major
6,924.9 km
B*
-2.2269e-2
RAAN
210.9938°
Arg perigee
357.1895°
Mean anomaly
74.8059°
Rev number
479

§ Raw data

KUIPER-001971 67769U 26030F   26145.16671295 -.00318935  00000+0 -22269-1 0  99932 67769  51.9040 210.9938 0003162 357.1895  74.8059 15.06534576  4793

JSON: /api/v1/satellites/67769 · /tle

For live sub-satellite position, see the globe view (requires WebGL).

§ Visibility from observer

Set your observer location to see the next 7 days of passes ≥ 10°. The values pass through the URL so the page stays shareable.

No JS? Fill the form by hand. The geolocation button needs JavaScript.